[[{"header":{"parameterUnit":"m.s-1","parameterCategory":1,"la1":30.2991,"la2":30.254,"lo1":-89.0895,"lo2":-89.0444,"dy":0.0017,"dx":0.0017,"nx":28,"ny":28,"refTime":"2024-07-23T03:00:00:Z","depth":0,"parameterNumber":2,"parameterNumberName":"U-component_of_WINDS"},"data":[0,0,0,0,0,0,0,0,0,0,0,0,0,0,0,0,0,0,0,0,0,0,0,0,0,0,0,0,0,0,0,0,0,0,0,0,0,0,0,0,0,0,0,0,0,0,0,0,0,0,0,0,0,0,0,0,0,0,2.2727,2.2726,0,2.2626,2.2625,2.2624,2.2568,2.2568,2.2568,2.2567,2.2461,2.2459,2.2456,0,0,0,0,0,0,0,0,0,0,0,0,0,2.2871,2.2868,2.2727,2.2726,2.2725,2.2626,2.2625,2.2623,2.2568,2.2568,2.2567,2.2567,2.2462,2.2459,2.2456,0,0,0,0,0,0,0,0,0,0,0,0,0,2.2793,2.2868,2.2727,2.2685,2.268,2.2626,2.2625,2.2623,2.2568,2.2568,2.2567,2.2567,2.2463,2.246,2.2456,2.2435,0,0,2.2443,2.2442,0,0,0,0,0,0,0,0,2.2797,2.2788,2.2693,2.2688,2.2683,2.2609,2.2636,2.256,2.2568,2.2611,2.2567,2.2567,2.2511,2.2503,2.2484,2.243,2.2426,2.2443,2.244,2.2439,2.2438,0,0,0,0,0,0,0,2.2803,2.2792,2.2687,2.2691,2.2685,2.2671,2.2659,2.2622,2.2563,2.2607,2.2603,2.2591,2.2508,2.2488,2.2481,2.2424,2.2443,2.2439,2.2437,2.2435,2.2347,2.2347,0,0,0,0,0,0,2.2815,2.2797,2.269,2.2684,2.2741,2.2668,2.2656,2.2633,2.2563,2.2552,2.2592,2.2589,2.2495,2.2486,2.2477,2.2448,2.2439,2.2435,2.2433,2.2347,2.2347,2.2347,0,0,0,0,0,0,2.2819,2.2806,2.2694,2.2739,2.2724,2.2666,2.2641,2.2631,2.2611,2.2552,2.2541,2.2583,2.2495,2.2483,2.2446,2.2444,2.2433,2.243,2.2347,2.2347,2.2347,2.239,0,0,0,0,0,0,2.2823,2.2808,2.28,2.2739,2.2722,2.2665,2.2641,2.2629,2.2605,2.2601,2.254,2.253,2.2494,2.2452,2.2442,2.2438,2.2426,2.2347,2.2347,2.2347,2.2389,2.2392,2.2394,0,0,0,0,0,2.2828,2.2816,2.28,2.2787,2.2711,2.2665,2.2655,2.2614,2.2605,2.2596,2.2558,2.2532,2.2446,2.2449,2.2437,2.2432,2.2347,2.2347,2.2347,2.2387,2.2391,2.2394,0,0,0,0,0,0,2.2876,2.2807,2.2788,2.2756,2.2717,2.2656,2.2644,2.2619,2.2582,2.2579,2.2529,2.2516,2.2483,2.2454,2.2459,2.2408,2.2394,2.2392,2.2428,2.2431,2.2434,2.2441,2.2423,0,0,0,0,0,2.2884,2.2853,2.2794,2.2771,2.2752,2.2702,2.268,2.2652,2.261,2.2593,2.2552,2.2511,2.2474,2.2451,2.2415,2.2385,2.237,2.2375,2.2378,2.238,2.2379,2.236,2.2361,2.2348,2.2348,2.2348,0,0,2.2897,2.2856,2.2839,2.278,2.2746,2.2715,2.2688,2.2657,2.2633,2.2588,2.255,2.2519,2.247,2.2436,2.2419,2.241,2.2379,2.2381,2.2383,2.238,2.236,2.2361,2.2363,2.2348,2.2348,2.2348,0,0,2.2906,2.2872,2.2849,2.2816,2.2767,2.2733,2.2728,2.267,2.2648,2.261,2.2575,2.2546,2.2485,2.2451,2.2426,2.2423,2.2397,2.2412,2.2427,2.2409,2.241,2.2411,2.2409,2.2409,2.2411,2.2411,2.2411,0,2.293,2.2882,2.284,2.2811,2.2785,2.2744,2.2719,2.269,2.263,2.2613,2.2604,2.2526,2.249,2.2448,2.2448,2.2429,2.242,2.2418,2.2414,2.2414,2.2414,2.2411,2.2411,2.2413,2.2413,2.2413,2.2413,0,2.2913,2.2881,2.2868,2.2812,2.2785,2.2759,2.2712,2.269,2.2664,2.2632,2.2593,2.2549,2.2502,2.249,2.2464,2.2444,2.244,2.2423,2.2408,2.2418,2.2415,2.2413,2.2416,2.2416,2.2415,2.2414,0,0,2.2949,2.2871,2.2866,2.2841,2.2783,2.2757,2.2728,2.2683,2.2665,2.2625,2.26,2.2549,2.2533,2.2505,2.2475,2.246,2.2459,2.2444,2.2443,2.2448,2.2433,2.2445,2.2445,2.2443,2.2442,2.2442,2.2437,0,2.2949,2.2896,2.2858,2.2819,2.2789,2.2749,2.2724,2.2686,2.2655,2.2623,2.2589,2.2553,2.2536,2.2518,2.2501,2.2463,2.2456,2.2463,2.2417,2.2416,2.243,2.2443,2.2456,2.2453,2.2435,2.2435,2.2435,0,2.2942,2.2904,2.2863,2.2809,2.2794,2.2773,2.2728,2.27,2.2655,2.2633,2.2602,2.2572,2.2539,2.2528,2.2482,2.2488,2.2467,2.2445,2.2444,2.2437,2.2425,2.2436,2.2451,2.2451,2.2433,2.2433,2.2433,0,2.2971,2.291,2.2878,2.2857,2.2793,2.2778,2.2751,2.2706,2.2681,2.2643,2.2626,2.2584,2.2561,2.2528,2.2487,2.2483,2.2445,2.243,2.2425,2.2426,2.2418,2.2419,2.2429,2.2406,2.2406,2.2407,2.2407,0,2.2974,2.2951,2.289,2.287,2.2842,2.2798,2.2771,2.274,2.2701,2.2673,2.2637,2.2612,2.2559,2.2528,2.2495,2.2462,2.2452,2.2432,2.2424,2.2435,2.2437,2.242,2.2418,2.2406,2.2406,2.2406,2.2406,0,2.3001,2.296,2.2922,2.2865,2.285,2.2832,2.2782,2.2761,2.2728,2.2694,2.2683,2.2631,2.2592,2.2548,2.2495,2.2473,2.2441,2.2429,2.2456,2.2451,2.2448,2.2449,2.2446,2.2443,2.2424,2.2425,2.2425,0,2.3006,2.2987,2.2928,2.2907,2.2881,2.2848,2.2823,2.2779,2.2755,2.2703,2.2687,2.2646,2.261,2.255,2.2506,2.2465,2.2451,2.2453,2.2445,2.2456,2.245,2.2451,2.2449,2.2456,2.2456,2.2456,2.2457,0,2.3018,2.2999,2.2965,2.2923,2.2895,2.286,2.2824,2.2809,2.2757,2.2731,2.2692,2.2664,2.2609,2.2568,2.2522,2.2492,2.2465,2.246,2.2456,2.2467,2.2483,2.2473,2.2462,2.246,2.246,2.2459,2.2459,2.2459,2.3033,2.3014,2.297,2.2933,2.2901,2.2868,2.2845,2.281,2.2776,2.2729,2.2705,2.2665,2.2621,2.2555,2.2527,2.2495,2.2486,2.2481,2.2479,2.2479,2.2481,2.249,2.2486,2.2486,2.2486,2.2486,2.2485,0,2.3042,2.3012,2.2979,2.2929,2.29,2.2879,2.2838,2.2815,2.2781,2.2742,2.2708,2.2662,2.2622,2.2576,2.2533,2.2516,2.2502,2.2506,2.2506,2.2499,2.2492,2.2499,2.2517,2.2517,2.2517,2.2517,2.2517,2.2517,2.3044,2.3011,2.2986,2.2936,2.2906,2.2867,2.2846,2.2815,2.2783,2.2734,2.2701,2.2672,2.263,2.2584,2.2546,2.2533,2.2518,2.2525,2.2509,2.2503,2.25,2.2498,2.2504,2.2523,2.2523,2.2519,2.2519,2.2519]},{"header":{"parameterUnit":"m.s-1","parameterCategory":1,"la1":30.2991,"la2":30.254,"lo1":-89.0895,"lo2":-89.0444,"dy":0.0017,"dx":0.0017,"nx":28,"ny":28,"refTime":"2024-07-23T03:00:00:Z","depth":0,"parameterNumber":3,"parameterNumberName":"V-component_of_WINDS"},"data":[0,0,0,0,0,0,0,0,0,0,0,0,0,0,0,0,0,0,0,0,0,0,0,0,0,0,0,0,0,0,0,0,0,0,0,0,0,0,0,0,0,0,0,0,0,0,0,0,0,0,0,0,0,0,0,0,0,0,3.1307,3.1309,0,3.1491,3.1493,3.1495,3.1563,3.1563,3.1562,3.1562,3.1741,3.1747,3.1752,0,0,0,0,0,0,0,0,0,0,0,0,0,3.1004,3.1009,3.1307,3.1309,3.1312,3.1491,3.1493,3.1496,3.1564,3.1563,3.1562,3.1561,3.174,3.1746,3.1752,0,0,0,0,0,0,0,0,0,0,0,0,0,3.1156,3.1011,3.1306,3.1367,3.1374,3.149,3.1493,3.1496,3.1564,3.1563,3.1562,3.1561,3.1738,3.1745,3.1753,3.182,0,0,3.1778,3.1781,0,0,0,0,0,0,0,0,3.1147,3.1167,3.1356,3.1363,3.1372,3.1504,3.1452,3.1604,3.1564,3.1491,3.1562,3.1561,3.1662,3.1677,3.1713,3.1828,3.1836,3.1778,3.1783,3.1787,3.1789,0,0,0,0,0,0,0,3.1137,3.116,3.1379,3.1358,3.1368,3.1382,3.1403,3.1482,3.1579,3.1498,3.1503,3.1525,3.1666,3.1705,3.1717,3.1838,3.1778,3.1785,3.179,3.1793,3.2015,3.2016,0,0,0,0,0,0,3.1117,3.115,3.1374,3.1385,3.1255,3.1388,3.1411,3.1462,3.1579,3.1596,3.1525,3.1527,3.1692,3.1708,3.1724,3.1809,3.1787,3.1794,3.1799,3.2014,3.2015,3.2016,0,0,0,0,0,0,3.1111,3.1137,3.1366,3.1269,3.13,3.1394,3.1451,3.1466,3.1505,3.1599,3.1616,3.1547,3.1692,3.1713,3.1795,3.1816,3.1798,3.1805,3.2012,3.2014,3.2016,3.1978,0,0,0,0,0,0,3.1102,3.1134,3.1163,3.127,3.1305,3.1438,3.1452,3.147,3.1519,3.1524,3.1624,3.164,3.1693,3.1783,3.1803,3.1826,3.1811,3.2011,3.2013,3.2015,3.1978,3.1979,3.1979,0,0,0,0,0,3.1091,3.1143,3.1164,3.119,3.1343,3.1439,3.1458,3.152,3.1521,3.1549,3.1609,3.1637,3.181,3.1791,3.1814,3.184,3.201,3.2013,3.2015,3.1978,3.1978,3.1979,0,0,0,0,0,0,3.1034,3.1159,3.1183,3.1272,3.1345,3.145,3.1488,3.1519,3.159,3.1591,3.1662,3.1684,3.176,3.1808,3.1785,3.1909,3.1912,3.1919,3.1875,3.1877,3.1877,3.1864,3.1818,0,0,0,0,0,3.1032,3.1102,3.1206,3.1275,3.131,3.1392,3.1436,3.1478,3.1554,3.1584,3.1651,3.1722,3.1792,3.1837,3.1907,3.1985,3.2007,3.2014,3.2014,3.2014,3.2019,3.2062,3.2066,3.2024,3.2024,3.2024,0,0,3.1028,3.1105,3.1145,3.1265,3.1327,3.1395,3.1418,3.1489,3.154,3.1594,3.1678,3.1728,3.1812,3.1892,3.1931,3.1934,3.2035,3.2017,3.2016,3.2022,3.2065,3.2069,3.2072,3.2026,3.2026,3.2025,0,0,3.1056,3.1123,3.1187,3.1248,3.1341,3.1395,3.141,3.1511,3.1547,3.1632,3.1674,3.1733,3.1853,3.1911,3.1956,3.2003,3.2031,3.2024,3.2025,3.2066,3.207,3.2073,3.2089,3.2094,3.2029,3.2028,3.2028,0,3.1039,3.1148,3.1215,3.1285,3.1335,3.139,3.1454,3.1508,3.1618,3.165,3.1653,3.1804,3.1864,3.1958,3.1969,3.2004,3.2021,3.2013,3.2064,3.2068,3.2072,3.2088,3.2094,3.2027,3.2027,3.2027,3.2027,0,3.1121,3.1195,3.1235,3.1342,3.1397,3.1463,3.1537,3.1584,3.1619,3.1672,3.1755,3.1829,3.1915,3.194,3.1974,3.2038,3.2037,3.2051,3.2055,3.2074,3.209,3.2097,3.2025,3.2025,3.2026,3.2026,0,0,3.112,3.1264,3.1277,3.1326,3.1432,3.1488,3.1554,3.1641,3.1679,3.1751,3.1808,3.1907,3.1921,3.1971,3.2012,3.2048,3.208,3.2058,3.2061,3.2059,3.2153,3.2142,3.2148,3.2099,3.21,3.2101,3.2146,0,3.1162,3.1288,3.135,3.1447,3.1515,3.1567,3.1624,3.1693,3.1743,3.1805,3.1859,3.1928,3.1942,3.1972,3.201,3.2068,3.21,3.2066,3.2149,3.2151,3.2127,3.2157,3.2146,3.2184,3.2152,3.2153,3.2154,0,3.1228,3.1304,3.1409,3.1506,3.1536,3.1588,3.167,3.173,3.1808,3.1841,3.1897,3.1937,3.2006,3.2004,3.2098,3.2074,3.2111,3.2144,3.2147,3.2157,3.2154,3.2167,3.2198,3.2203,3.2165,3.2164,3.2163,0,3.1216,3.1343,3.1423,3.1463,3.1578,3.1612,3.1661,3.1738,3.1786,3.1856,3.1887,3.1964,3.2006,3.2063,3.2121,3.2115,3.2209,3.2213,3.2237,3.2235,3.2255,3.2253,3.2291,3.2278,3.2278,3.2278,3.2278,0,3.1257,3.1319,3.1419,3.1467,3.1537,3.1605,3.1671,3.1723,3.1791,3.1849,3.1897,3.1948,3.2023,3.2083,3.2128,3.2198,3.2217,3.2244,3.2255,3.224,3.2236,3.2265,3.2264,3.228,3.2279,3.2279,3.2279,0,3.1255,3.1325,3.1415,3.1517,3.1543,3.159,3.1675,3.1723,3.1775,3.1846,3.1867,3.1947,3.202,3.2084,3.218,3.221,3.2282,3.2296,3.2257,3.2263,3.2284,3.2281,3.2342,3.2353,3.2333,3.2333,3.2333,0,3.1277,3.1326,3.1433,3.1477,3.1526,3.1594,3.1643,3.1711,3.1759,3.1851,3.1886,3.1963,3.2029,3.2142,3.2207,3.228,3.2296,3.2313,3.2307,3.229,3.2296,3.2292,3.2297,3.2312,3.2312,3.2312,3.2312,0,3.1307,3.1339,3.141,3.1492,3.1549,3.1617,3.1685,3.1716,3.1795,3.1847,3.1924,3.1974,3.2073,3.2148,3.2228,3.2275,3.2306,3.2313,3.2323,3.2308,3.2283,3.2296,3.2256,3.2312,3.2312,3.2312,3.2312,3.2312,3.1318,3.1364,3.1446,3.1523,3.1581,3.1644,3.1693,3.1752,3.1818,3.1906,3.194,3.2018,3.2092,3.2203,3.225,3.2309,3.2314,3.2328,3.2331,3.2334,3.2331,3.2273,3.2324,3.2324,3.2324,3.2324,3.2324,0,3.135,3.1406,3.1476,3.1571,3.1629,3.1656,3.1732,3.1779,3.1848,3.1916,3.198,3.2067,3.2139,3.221,3.2286,3.2319,3.2335,3.2337,3.2335,3.2345,3.2322,3.2307,3.2323,3.2323,3.2323,3.2323,3.2323,3.2323,3.1374,3.1453,3.1494,3.1601,3.1655,3.1735,3.1776,3.1832,3.1887,3.1983,3.2044,3.2091,3.2159,3.224,3.2307,3.2325,3.235,3.2348,3.237,3.2347,3.2347,3.2346,3.2332,3.2353,3.2353,3.2388,3.2388,3.2388]}]]